Temp
-7 -7 -6 -7 -7 -7 -7 -8 -7 -8 -7 -7 -7 -6 -6 -7 -8 -8 -8 -8 -7 -7 -7 -7 -7 -7 -7 -7 -7 -7 -7 -7 -7 -7 -7 -7 -7 -8 -8 -8 -8 -8 -8 -8 -8 -8 -8 -8 -8
-7 -7 -7 -7 -8 -8 -7 -8 -8 -8 -8 -8 -7 -6 -6 -7 -8 -9 -9 -9 -8 -7 -7 -7 -8 -8 -7 -7 -7 -7 -7 -8 -8 -8 -8 -8 -8 -8 -8 -8 -9 -8 -9 -8 -8 -8 -8 -8 -8
-7 -7 -7 -8 -8 -8 -8 -8 -7 -8 -8 -7 -7 -7 -7 -7 -8 -8 -9 -8 -8 -9 -8 -8 -8 -8 -8 -8 -8 -8 -8 -8 -8 -8 -8 -8 -9 -9 -8 -8 -8 -8 -9 -9 -9 -9 -8 -8 -8
-7 -7 -8 -8 -8 -9 -9 -8 -8 -8 -8 -7 -7 -7 -8 -9 -9 -9 -9 -9 -8 -9 -8 -8 -8 -8 -8 -8 -8 -8 -8 -8 -8 -8 -8 -8 -8 -8 -8 -8 -9 -8 -9 -9 -8 -8 -8 -8 -8
-7 -8 -9 -8 -9 -9 -9 -9 -9 -9 -9 -8 -8 -8 -8 -8 -9 -9 -9 -9 -9 -9 -9 -9 -9 -9 -9 -9 -9 -9 -9 -9 -9 -8 -8 -8 -8 -8 -8 -9 -9 -8 -8 -9 -9 -8 -8 -8 -8
-7 -8 -9 -8 -9 -10 -9 -9 -9 -10 -9 -9 -8 -8 -8 -8 -8 -8 -8 -8 -8 -9 -9 -9 -9 -9 -9 -9 -9 -9 -9 -9 -9 -9 -9 -9 -9 -9 -9 -9 -9 -9 -9 -8 -8 -8 -8 -8 -8
-7 -9 -9 -9 -10 -10 -9 -9 -9 -9 -11 -11 -9 -10 -8 -8 -8 -8 -8 -8 -8 -8 -8 -9 -9 -9 -9 -9 -9 -9 -9 -9 -9 -10 -10 -10 -10 -9 -9 -9 -9 -9 -9 -9 -9 -9 -9 -9 -9
-7 -10 -9 -9 -9 -10 -9 -10 -10 -10 -9 -10 -9 -7 -8 -8 -9 -9 -8 -8 -8 -8 -9 -9 -10 -10 -10 -10 -10 -10 -10 -10 -10 -10 -10 -10 -10 -10 -10 -10 -10 -9 -9 -9 -9 -9 -9 -9 -9
-8 -9 -9 -9 -9 -10 -10 -10 -10 -10 -11 -10 -9 -9 -9 -9 -9 -9 -9 -9 -9 -10 -10 -10 -10 -10 -10 -10 -10 -10 -10 -10 -10 -10 -10 -10 -10 -10 -11 -10 -10 -10 -10 -10 -10 -9 -9 -9 -9
-8 -9 -9 -10 -10 -10 -10 -11 -10 -10 -10 -11 -12 -10 -10 -10 -10 -10 -10 -9 -9 -10 -10 -10 -10 -10 -10 -10 -10 -10 -11 -11 -11 -11 -11 -11 -11 -11 -10 -11 -11 -10 -10 -10 -10 -10 -9 -9 -9
-8 -9 -9 -9 -9 -9 -10 -11 -11 -11 -10 -10 -10 -11 -11 -10 -10 -10 -10 -10 -10 -11 -11 -10 -10 -10 -10 -10 -11 -11 -11 -11 -11 -11 -11 -10 -10 -10 -10 -10 -10 -10 -10 -10 -10 -10 -9 -10 -10
-8 -9 -8 -10 -9 -9 -10 -11 -11 -11 -11 -10 -10 -9 -10 -11 -11 -11 -11 -11 -11 -11 -10 -11 -11 -11 -11 -10 -10 -10 -10 -11 -11 -11 -11 -11 -11 -11 -11 -11 -11 -10 -10 -10 -11 -10 -10 -10 -10
-9 -10 -9 -9 -9 -9 -10 -11 -11 -11 -11 -10 -10 -9 -11 -11 -11 -11 -12 -12 -12 -11 -11 -11 -12 -12 -12 -12 -11 -11 -11 -11 -11 -12 -12 -12 -12 -12 -11 -11 -11 -10 -10 -10 -10 -10 -10 -10 -10
-10 -9 -10 -10 -11 -11 -10 -11 -11 -11 -11 -11 -11 -11 -10 -12 -11 -12 -12 -12 -12 -12 -12 -12 -13 -12 -13 -13 -12 -12 -11 -12 -13 -12 -12 -12 -12 -12 -11 -11 -11 -11 -11 -11 -10 -10 -10 -10 -10
-8 -8 -11 -11 -11 -11 -9 -10 -11 -11 -11 -11 -11 -11 -11 -13 -13 -13 -12 -12 -11 -12 -13 -13 -12 -12 -12 -12 -12 -12 -12 -13 -12 -12 -12 -12 -11 -11 -11 -11 -11 -11 -11 -10 -11 -10 -10 -10 -10
-9 -10 -10 -10 -10 -11 -9 -10 -11 -11 -11 -11 -12 -11 -10 -11 -12 -12 -9 -6 -10 -10 -11 -11 -11 -11 -11 -11 -12 -12 -12 -13 -13 -13 -12 -12 -12 -11 -12 -11 -12 -11 -12 -12 -11 -11 -11 -11 -10
-10 -10 -9 -10 -11 -10 -11 -11 -11 -10 -11 -11 -11 -12 -12 -11 -11 -9 -11 -11 -11 -11 -11 -11 -11 -12 -11 -11 -12 -12 -12 -13 -13 -13 -13 -12 -12 -12 -12 -13 -13 -13 -13 -12 -12 -11 -11 -10 -10
-9 -10 -10 -10 -11 -10 -11 -11 -12 -10 -10 -11 -11 -11 -12 -12 -11 -11 -11 -11 -11 -12 -12 -12 -12 -12 -12 -12 -13 -13 -13 -13 -13 -13 -12 -12 -13 -13 -13 -14 -13 -12 -14 -12 -12 -11 -11 -11 -10
-9 -11 -11 -11 -11 -10 -11 -10 -11 -11 -11 -11 -11 -11 -11 -12 -12 -12 -12 -12 -12 -12 -12 -12 -12 -13 -13 -13 -13 -13 -13 -13 -13 -13 -13 -13 -15 -15 -14 -14 -13 -13 -13 -13 -13 -12 -12 -12 -11
-10 -11 -11 -11 -12 -11 -12 -12 -12 -11 -10 -11 -11 -12 -11 -12 -12 -12 -12 -12 -12 -12 -12 -12 -12 -13 -13 -13 -13 -13 -13 -13 -12 -12 -14 -15 -15 -14 -14 -13 -14 -14 -13 -13 -13 -13 -13 -12 -12
-11 -11 -10 -10 -10 -11 -11 -12 -12 -12 -11 -11 -11 -11 -10 -11 -12 -12 -12 -12 -12 -12 -12 -12 -13 -13 -13 -13 -14 -13 -13 -13 -14 -15 -15 -14 -15 -14 -14 -14 -14 -14 -14 -14 -13 -13 -13 -13 -13
-11 -11 -11 -11 -11 -12 -11 -11 -11 -12 -12 -11 -11 -12 -11 -11 -11 -11 -11 -12 -12 -12 -13 -13 -13 -14 -14 -14 -13 -13 -14 -15 -14 -15 -15 -15 -14 -15 -14 -15 -14 -15 -15 -14 -14 -14 -13 -13 -13
-12 -11 -11 -11 -12 -12 -11 -11 -11 -12 -11 -10 -11 -12 -12 -12 -12 -12 -12 -13 -12 -12 -13 -14 -14 -14 -14 -13 -13 -15 -15 -15 -15 -15 -15 -15 -15 -15 -14 -15 -15 -15 -15 -14 -14 -14 -15 -15 -15
-11 -11 -11 -12 -11 -11 -11 -12 -11 -12 -12 -10 -12 -13 -13 -13 -13 -13 -13 -13 -13 -13 -14 -14 -14 -14 -14 -14 -14 -15 -15 -15 -15 -16 -16 -15 -16 -15 -15 -15 -15 -15 -15 -15 -15 -15 -16 -16 -16
-13 -12 -12 -11 -11 -11 -12 -12 -12 -12 -12 -13 -13 -13 -13 -13 -13 -13 -13 -13 -14 -14 -14 -14 -15 -14 -14 -15 -15 -16 -16 -15 -15 -16 -16 -16 -16 -16 -15 -16 -16 -16 -15 -16 -16 -16 -16 -17 -16
-12 -12 -13 -13 -13 -12 -12 -12 -12 -12 -12 -13 -13 -13 -13 -13 -14 -14 -14 -14 -14 -15 -15 -15 -15 -15 -15 -16 -16 -16 -16 -15 -16 -16 -16 -16 -16 -16 -16 -16 -16 -16 -17 -17 -17 -17 -17 -17 -17
-12 -13 -12 -12 -13 -12 -12 -13 -12 -13 -12 -13 -13 -14 -13 -14 -14 -14 -14 -14 -15 -15 -15 -15 -15 -16 -16 -16 -16 -16 -16 -16 -16 -16 -16 -16 -17 -17 -17 -17 -17 -18 -18 -17 -17 -18 -17 -17 -18
-12 -12 -12 -14 -13 -14 -13 -13 -13 -13 -14 -13 -13 -14 -14 -14 -14 -14 -14 -15 -15 -15 -15 -16 -16 -16 -16 -16 -16 -16 -16 -16 -16 -17 -17 -17 -17 -17 -17 -18 -18 -18 -18 -18 -18 -18 -17 -17 -18
-12 -14 -14 -13 -14 -14 -14 -14 -13 -14 -14 -15 -13 -13 -14 -14 -15 -15 -15 -15 -15 -16 -16 -16 -16 -16 -16 -16 -16 -16 -16 -17 -17 -17 -17 -17 -18 -18 -19 -19 -19 -19 -19 -18 -18 -18 -18 -17 -18
-13 -13 -12 -13 -14 -15 -14 -14 -14 -15 -14 -15 -15 -15 -14 -15 -15 -15 -15 -15 -16 -16 -16 -16 -16 -16 -17 -18 -17 -18 -18 -18 -18 -18 -19 -19 -19 -19 -20 -20 -20 -20 -19 -19 -19 -19 -18 -18 -19
Height
5904 5904 5906 5908 5912 5910 5909 5906 5902 5898 5896 5896 5894 5892 5891 5889 5889 5891 5890 5892 5893 5893 5892 5893 5893 5892 5892 5892 5892 5892 5892 5892 5891 5891 5890 5889 5889 5889 5889 5889 5889 5888 5888 5888 5889 5890 5890 5891 5891
5903 5904 5906 5908 5910 5916 5902 5906 5901 5898 5896 5895 5894 5892 5888 5886 5886 5886 5888 5891 5893 5893 5892 5891 5890 5890 5890 5890 5890 5890 5889 5888 5887 5887 5888 5887 5886 5886 5885 5885 5886 5885 5886 5886 5886 5886 5886 5887 5887
5903 5904 5906 5905 5916 5914 5911 5904 5901 5898 5897 5896 5896 5892 5889 5889 5888 5889 5889 5888 5888 5890 5890 5890 5890 5890 5888 5887 5886 5885 5884 5884 5883 5882 5882 5883 5882 5882 5882 5882 5882 5882 5882 5881 5881 5880 5880 5880 5881
5902 5904 5907 5910 5913 5909 5911 5904 5901 5900 5899 5898 5897 5894 5892 5890 5890 5891 5890 5889 5889 5889 5889 5888 5887 5886 5885 5883 5883 5882 5882 5880 5879 5879 5879 5879 5879 5879 5878 5878 5877 5878 5877 5877 5876 5876 5875 5876 5875
5902 5903 5907 5917 5913 5909 5905 5903 5902 5901 5900 5899 5898 5893 5894 5892 5891 5890 5890 5889 5888 5887 5886 5885 5884 5882 5881 5880 5879 5878 5877 5877 5877 5877 5876 5876 5876 5875 5875 5873 5873 5872 5872 5872 5871 5872 5871 5870 5871
5901 5904 5912 5917 5912 5908 5904 5903 5902 5902 5900 5899 5898 5896 5895 5893 5891 5890 5888 5887 5885 5884 5883 5883 5882 5880 5879 5878 5877 5877 5876 5876 5875 5874 5874 5874 5873 5872 5871 5870 5870 5869 5869 5868 5867 5867 5866 5866 5865
5901 5907 5915 5916 5911 5910 5905 5903 5903 5902 5901 5898 5897 5899 5894 5892 5891 5889 5887 5885 5883 5882 5881 5880 5878 5878 5877 5876 5876 5875 5873 5873 5871 5871 5870 5870 5869 5868 5867 5866 5866 5865 5865 5864 5863 5862 5861 5861 5860
5901 5907 5915 5914 5914 5910 5904 5903 5902 5902 5904 5898 5898 5878 5884 5891 5890 5887 5886 5884 5882 5880 5878 5877 5876 5874 5873 5871 5871 5870 5868 5867 5866 5866 5865 5864 5863 5862 5862 5861 5861 5859 5858 5857 5856 5855 5855 5853 5854
5903 5907 5915 5912 5912 5909 5904 5904 5902 5901 5901 5897 5896 5895 5893 5890 5888 5887 5885 5882 5879 5877 5876 5875 5873 5871 5869 5868 5867 5865 5864 5862 5861 5860 5859 5858 5857 5855 5856 5854 5854 5852 5851 5850 5849 5849 5847 5847 5845
5903 5911 5912 5908 5907 5909 5907 5904 5905 5900 5898 5899 5894 5891 5889 5888 5887 5885 5882 5880 5877 5875 5872 5870 5868 5866 5865 5864 5862 5860 5859 5858 5857 5856 5854 5853 5851 5850 5849 5848 5847 5845 5844 5844 5843 5842 5841 5840 5838
5903 5911 5906 5904 5902 5902 5903 5904 5901 5900 5900 5897 5896 5889 5887 5886 5885 5882 5880 5877 5874 5871 5869 5867 5866 5864 5861 5860 5858 5856 5854 5853 5852 5851 5850 5848 5847 5845 5843 5841 5839 5839 5837 5835 5834 5832 5832 5831 5828
5901 5902 5901 5901 5900 5900 5901 5903 5901 5898 5900 5892 5896 5888 5885 5884 5881 5879 5876 5872 5868 5867 5865 5864 5863 5861 5859 5857 5854 5852 5850 5849 5847 5847 5845 5843 5841 5839 5836 5834 5830 5829 5827 5825 5824 5822 5821 5820 5819
5899 5901 5899 5898 5897 5897 5898 5898 5899 5900 5897 5895 5896 5891 5883 5880 5877 5874 5871 5866 5862 5860 5859 5858 5856 5854 5853 5850 5850 5847 5846 5845 5842 5840 5839 5836 5833 5832 5829 5826 5823 5820 5819 5816 5814 5812 5811 5810 5808
5898 5898 5898 5897 5896 5895 5895 5899 5894 5896 5892 5893 5889 5890 5880 5877 5873 5867 5863 5858 5853 5851 5852 5852 5850 5847 5844 5843 5842 5841 5839 5836 5833 5831 5831 5827 5823 5822 5819 5816 5815 5812 5811 5808 5806 5803 5801 5799 5798
5896 5896 5898 5897 5896 5895 5894 5893 5893 5888 5888 5886 5888 5884 5883 5875 5871 5864 5851 5849 5838 5842 5846 5845 5840 5839 5838 5834 5834 5832 5831 5826 5825 5822 5821 5817 5815 5812 5810 5807 5805 5803 5801 5797 5796 5794 5793 5790 5788
5894 5895 5900 5897 5893 5891 5893 5898 5889 5884 5883 5883 5883 5884 5881 5877 5869 5855 5818 5835 5840 5839 5840 5836 5835 5835 5833 5830 5827 5826 5822 5817 5817 5814 5811 5807 5804 5802 5800 5796 5795 5793 5788 5787 5785 5783 5781 5779 5775
5896 5899 5903 5900 5890 5889 5890 5891 5885 5878 5879 5876 5876 5878 5879 5873 5860 5854 5844 5826 5844 5839 5835 5833 5831 5827 5825 5821 5820 5815 5813 5810 5807 5805 5801 5797 5795 5793 5790 5785 5784 5782 5779 5777 5773 5771 5768 5764 5760
5902 5900 5900 5896 5891 5884 5887 5885 5878 5875 5872 5870 5869 5870 5869 5859 5857 5856 5850 5842 5836 5834 5832 5829 5825 5821 5818 5813 5808 5807 5804 5802 5799 5795 5791 5786 5784 5782 5778 5776 5771 5768 5767 5764 5761 5758 5756 5751 5745
5893 5893 5893 5891 5882 5882 5880 5877 5872 5869 5866 5864 5861 5859 5856 5854 5852 5850 5846 5840 5834 5831 5826 5823 5816 5812 5808 5805 5802 5797 5796 5792 5790 5784 5779 5777 5773 5771 5766 5765 5762 5760 5756 5750 5747 5744 5740 5735 5730
5889 5891 5890 5886 5879 5876 5875 5874 5871 5864 5860 5858 5855 5852 5851 5849 5845 5841 5837 5833 5830 5825 5821 5816 5811 5806 5801 5798 5795 5789 5783 5781 5775 5772 5771 5770 5768 5764 5759 5757 5752 5749 5744 5740 5736 5733 5726 5720 5715
5889 5884 5881 5879 5876 5874 5874 5871 5868 5856 5854 5851 5848 5846 5840 5842 5838 5834 5829 5825 5821 5817 5812 5808 5803 5798 5793 5790 5785 5782 5774 5768 5765 5762 5763 5762 5756 5751 5749 5745 5740 5737 5733 5728 5723 5718 5712 5708 5703
5887 5878 5876 5874 5872 5870 5869 5869 5865 5851 5844 5841 5839 5837 5834 5833 5830 5826 5822 5817 5814 5809 5804 5800 5796 5790 5786 5781 5775 5770 5764 5758 5757 5753 5751 5747 5744 5741 5739 5735 5728 5724 5719 5714 5709 5702 5699 5696 5691
5877 5875 5872 5870 5868 5867 5865 5864 5861 5854 5840 5817 5832 5831 5827 5824 5822 5818 5814 5810 5806 5801 5796 5792 5787 5782 5777 5772 5760 5758 5756 5753 5749 5745 5743 5738 5734 5730 5727 5722 5717 5713 5705 5700 5698 5693 5687 5683 5679
5871 5869 5868 5866 5869 5868 5858 5860 5864 5844 5840 5831 5831 5825 5821 5818 5814 5811 5807 5803 5798 5793 5788 5784 5780 5771 5762 5761 5755 5749 5747 5743 5738 5735 5732 5728 5723 5718 5715 5711 5705 5699 5695 5691 5685 5680 5676 5672 5669
5866 5864 5863 5866 5866 5868 5856 5854 5849 5835 5834 5828 5824 5820 5815 5811 5808 5803 5799 5795 5790 5784 5778 5774 5768 5762 5755 5751 5746 5742 5738 5733 5728 5723 5718 5714 5709 5705 5703 5696 5691 5686 5682 5677 5673 5669 5667 5662 5659
5863 5861 5860 5856 5857 5856 5853 5847 5834 5828 5826 5820 5820 5815 5809 5805 5801 5796 5791 5786 5780 5775 5769 5764 5758 5751 5746 5740 5735 5730 5725 5720 5713 5709 5706 5700 5695 5690 5686 5680 5676 5672 5669 5665 5662 5658 5654 5651 5649
5859 5858 5855 5850 5850 5851 5851 5838 5834 5825 5813 5805 5813 5808 5802 5797 5792 5788 5783 5777 5772 5766 5760 5754 5748 5741 5735 5729 5723 5717 5712 5707 5701 5696 5690 5685 5680 5674 5669 5666 5662 5660 5657 5654 5650 5647 5644 5641 5638
5850 5848 5848 5848 5844 5843 5845 5839 5827 5823 5816 5801 5798 5802 5795 5789 5785 5779 5773 5768 5762 5756 5750 5744 5737 5730 5723 5716 5709 5702 5697 5692 5687 5681 5675 5671 5667 5662 5658 5655 5652 5649 5647 5644 5642 5639 5635 5632 5629
5849 5848 5840 5838 5837 5836 5834 5833 5816 5816 5812 5802 5796 5792 5785 5781 5776 5770 5765 5759 5753 5747 5741 5733 5725 5716 5708 5700 5691 5685 5681 5676 5672 5668 5663 5659 5654 5651 5648 5645 5643 5640 5637 5636 5634 5631 5628 5626 5622
5841 5838 5833 5830 5829 5826 5823 5822 5809 5805 5802 5795 5790 5785 5779 5774 5768 5762 5756 5750 5744 5737 5730 5721 5710 5700 5691 5684 5678 5671 5668 5664 5659 5654 5650 5647 5643 5640 5638 5635 5633 5631 5629 5627 5625 5624 5621 5618 5616
Wind_Speed
12 12 13 11 12 6 4 14 12 11 9 8 7 9 12 15 18 18 15 15 15 12 10 10 11 12 12 11 9 10 11 12 12 13 13 14 14 15 14 13 14 14 15 16 17 18 18 18 17
9 10 9 8 16 15 8 23 10 7 9 7 5 2 7 9 14 19 15 10 8 10 12 12 11 11 10 10 9 12 13 14 13 13 13 13 14 14 15 15 16 17 17 18 18 20 20 21 21
8 9 9 13 1 10 12 13 4 9 8 4 2 3 5 5 10 10 14 16 15 16 14 11 11 12 13 12 13 14 15 16 15 16 17 17 17 17 18 19 20 22 22 23 24 24 25 25 25
7 8 4 13 6 15 4 3 7 10 11 6 5 3 3 6 8 8 8 9 11 10 11 12 14 14 15 16 18 18 19 19 20 20 20 20 21 21 22 23 24 25 26 26 26 26 25 25 25
6 5 7 2 7 7 3 3 9 8 11 6 8 3 1 3 5 6 6 6 7 9 10 12 12 13 15 16 17 19 20 20 22 22 22 23 24 25 26 26 26 26 26 27 26 27 28 28 29
2 8 5 3 10 5 5 2 3 7 9 8 7 7 5 7 8 8 9 11 12 12 13 12 12 13 14 15 17 18 17 17 18 17 19 21 22 23 25 25 26 26 26 28 29 29 31 32 32
2 11 1 6 7 2 3 4 5 7 7 7 7 3 9 10 8 9 11 12 13 15 17 18 18 17 16 16 17 16 16 17 18 18 20 22 23 24 25 25 26 25 26 28 28 29 30 31 31
3 8 9 4 1 8 3 1 4 5 7 10 8 3 12 11 11 10 10 12 15 16 16 15 16 18 18 18 18 19 20 20 21 23 24 25 27 27 28 28 30 30 30 31 31 32 33 35 34
6 14 3 6 5 7 5 2 9 4 4 9 10 10 9 9 10 11 13 15 17 18 18 19 19 21 21 22 22 23 24 25 26 27 29 30 30 31 31 32 32 34 35 35 36 38 38 38 40
8 6 9 11 5 4 6 1 12 8 11 8 7 11 13 11 13 15 16 19 20 19 19 19 21 23 25 26 26 27 27 28 28 29 30 31 31 32 33 35 37 38 39 40 42 42 42 42 42
12 2 20 9 7 4 4 7 6 7 8 13 15 19 14 12 13 14 15 17 19 18 19 20 22 25 28 27 26 26 26 26 27 27 28 28 29 31 32 35 37 38 40 41 42 44 44 44 45
6 10 8 9 7 5 2 6 9 8 4 11 9 18 23 14 16 18 19 20 23 21 21 23 26 29 31 32 34 34 33 30 29 28 30 31 34 34 35 37 40 39 40 42 43 47 47 47 46
4 9 7 9 9 8 8 6 6 8 10 12 13 16 27 17 19 22 23 25 26 26 24 25 28 29 31 35 35 36 32 30 29 29 30 35 38 39 39 40 41 43 41 45 47 48 48 48 48
9 8 7 6 8 9 8 8 13 5 14 8 22 10 24 20 23 27 27 30 32 31 27 29 33 37 37 38 38 35 29 31 28 31 33 39 42 43 43 43 42 45 44 45 50 50 48 48 48
6 4 9 9 6 12 12 17 13 15 19 17 10 20 22 20 24 28 38 34 41 28 28 34 42 43 43 37 39 35 34 31 31 35 34 42 44 45 47 47 50 49 47 51 49 52 51 49 48
5 4 5 17 30 23 11 4 24 32 27 21 15 17 22 27 27 34 56 40 27 32 34 38 38 40 42 45 36 38 40 40 36 42 49 47 47 46 51 54 55 55 59 57 54 57 59 55 56
10 6 8 12 21 21 12 10 25 35 28 25 22 19 21 27 34 40 39 34 38 36 38 43 43 42 42 38 44 41 36 35 48 45 43 54 57 50 48 45 40 37 34 40 45 47 47 46 48
9 9 11 14 21 24 12 14 24 24 23 25 25 26 31 38 40 34 36 41 43 43 45 43 46 46 46 48 50 52 51 50 48 50 61 59 52 44 43 38 36 47 43 41 42 44 52 52 48
19 8 9 14 24 16 13 19 22 22 23 23 23 25 29 30 30 32 35 39 41 42 44 46 51 53 54 54 56 53 47 50 56 57 44 48 42 40 39 36 37 41 44 45 48 49 50 50 51
9 5 11 12 18 21 17 18 19 25 24 22 23 27 25 28 30 32 35 37 40 43 45 48 52 54 55 53 52 56 57 54 57 48 46 36 36 40 41 41 41 44 45 44 48 52 53 52 54
11 14 14 16 20 19 17 20 24 37 32 28 25 26 32 25 30 33 36 39 42 44 46 48 51 52 52 52 52 47 50 42 51 41 39 40 43 41 39 40 42 43 47 49 50 51 49 49 50
3 23 20 23 23 21 18 17 20 33 43 42 30 28 31 30 32 33 36 39 40 44 47 49 50 52 51 53 57 50 58 47 47 44 46 43 43 41 43 42 46 48 49 48 47 47 48 46 45
18 22 25 24 23 21 18 5 18 18 30 11 32 33 32 32 33 35 37 39 41 44 46 46 47 50 55 55 50 56 47 45 43 44 44 45 45 45 46 47 49 49 46 47 47 46 44 43 43
23 22 24 19 16 17 15 19 17 32 32 45 41 35 33 33 33 35 36 39 42 44 45 48 50 51 39 50 57 54 49 48 45 46 49 50 49 49 48 50 50 46 46 46 44 43 41 41 40
22 25 23 13 12 10 22 30 28 40 36 38 36 33 33 35 35 36 38 40 43 45 47 47 46 50 56 56 54 50 49 50 54 52 52 53 51 51 51 49 47 47 45 42 39 38 38 36 35
24 24 20 21 19 20 22 24 32 32 43 41 31 34 35 36 36 39 41 43 44 44 46 48 51 53 54 54 50 48 51 54 60 60 57 54 51 50 49 49 50 45 40 38 37 38 38 36 35
26 21 26 27 17 17 14 24 32 29 42 13 37 37 36 37 40 40 41 41 42 45 47 49 50 51 52 53 55 54 57 58 58 61 60 56 55 54 53 51 45 40 38 36 35 30 31 32 34
31 33 17 15 21 18 17 24 37 36 34 53 49 36 37 38 38 38 39 39 42 44 47 49 50 50 52 54 56 58 65 65 63 58 57 58 57 53 48 42 39 38 35 32 26 24 26 29 30
31 21 33 32 23 19 20 21 40 39 39 41 41 38 39 42 39 39 40 43 44 45 47 51 56 59 58 61 65 63 67 64 60 60 59 58 52 44 39 38 36 33 30 27 25 25 25 29 28
31 29 31 31 27 24 26 27 38 39 35 37 38 39 41 38 38 40 42 44 47 49 48 56 68 64 62 59 60 60 62 63 61 56 47 44 41 39 38 34 32 30 28 26 26 27 26 27 24
Wind_Direction
287 292 307 340 12 359 194 309 333 331 347 352 344 290 254 245 246 228 200 210 210 212 214 224 229 234 235 235 244 253 254 254 252 253 248 246 253 256 257 258 260 261 262 265 269 272 274 277 279
295 304 324 357 46 319 359 306 347 5 359 343 331 262 231 238 234 174 169 185 210 235 225 222 224 229 231 240 244 250 245 238 235 243 250 253 253 257 259 261 263 264 267 268 270 271 271 272 274
305 311 338 40 333 290 323 301 2 13 4 27 40 62 89 171 180 194 188 200 211 225 221 221 233 241 240 236 234 239 240 242 242 242 245 251 254 255 260 263 265 267 267 268 269 270 269 270 271
311 322 36 51 332 277 293 12 26 37 27 22 28 47 61 126 159 194 216 223 224 224 236 237 235 235 241 240 242 245 248 246 246 249 252 253 257 259 261 261 260 262 263 265 267 268 268 269 269
308 332 75 292 290 302 22 14 34 11 360 7 18 319 115 159 191 199 217 221 235 241 239 234 234 233 236 237 238 234 236 239 246 249 251 254 255 254 256 258 260 262 264 267 267 269 272 272 272
305 59 113 239 267 328 29 26 341 346 342 335 315 309 296 273 256 254 261 265 265 268 270 267 269 258 247 246 245 245 249 257 259 261 264 266 265 264 263 264 266 268 270 273 275 276 276 276 276
113 105 272 195 268 347 9 28 12 345 321 318 311 295 310 306 300 296 285 273 266 261 263 265 266 265 265 268 270 263 263 263 267 270 272 271 271 270 272 274 276 277 278 278 277 277 277 278 278
77 162 239 194 91 267 319 4 297 0 331 307 344 202 293 301 301 292 279 279 280 284 279 271 268 268 270 272 270 269 273 273 272 275 277 277 276 276 277 278 277 278 277 278 278 277 277 279 277
95 113 233 228 105 276 303 37 289 329 324 295 302 284 302 295 275 277 275 270 275 275 273 270 271 271 271 271 270 271 269 270 270 272 272 273 274 276 277 279 280 280 279 278 280 281 282 281 282
113 102 200 224 233 182 285 233 274 312 325 291 267 281 302 289 276 264 264 268 270 276 279 282 285 282 276 273 272 271 272 273 273 274 276 277 279 278 277 276 278 278 279 279 279 279 279 280 280
116 173 234 254 249 237 227 269 265 308 246 312 303 294 286 287 281 279 288 277 277 274 281 286 287 286 285 282 277 273 269 267 269 274 279 283 283 282 283 283 279 280 280 281 282 282 283 282 283
175 215 239 246 269 291 280 229 276 298 194 235 289 265 294 281 283 287 294 290 288 283 284 289 288 283 279 274 270 269 268 271 274 280 283 285 284 284 287 286 283 282 282 284 286 287 287 287 287
171 258 265 280 291 298 288 289 269 279 298 288 273 249 282 286 276 275 281 282 278 278 286 290 287 278 271 270 268 268 271 279 277 283 292 292 292 291 288 284 283 282 285 287 287 286 286 285 284
260 241 272 287 280 294 308 290 286 310 260 266 284 246 275 282 282 278 280 276 273 278 284 290 279 271 262 265 268 270 270 273 273 294 290 287 285 283 282 280 281 279 281 290 283 281 282 279 279
305 318 285 290 289 278 329 345 274 269 291 290 251 287 267 273 268 272 285 268 269 261 274 274 271 275 273 279 262 264 264 278 297 302 298 300 290 280 279 279 279 283 282 282 285 280 278 277 277
313 282 238 256 287 292 319 299 264 281 289 288 270 267 274 281 284 277 258 249 272 266 280 270 275 282 292 281 281 272 266 298 303 301 299 302 296 287 290 286 283 281 282 282 282 281 280 278 281
293 241 272 275 290 298 298 221 272 278 287 283 282 274 271 267 269 293 287 294 289 285 281 288 288 291 293 287 293 294 294 295 302 297 291 291 287 285 280 289 290 296 298 298 295 287 285 283 286
217 257 260 269 261 283 283 271 277 298 293 289 281 272 259 257 278 284 278 282 285 287 293 295 291 289 294 293 309 308 306 303 299 291 294 264 289 310 307 314 319 301 310 304 294 292 287 287 289
230 252 255 262 275 305 296 300 294 300 296 289 286 277 270 275 272 272 272 275 281 286 288 291 294 300 303 304 304 304 300 297 288 285 281 306 320 319 316 309 303 298 295 297 294 291 290 291 290
267 292 264 294 309 317 313 299 294 303 297 287 277 273 279 273 274 271 273 275 276 279 284 289 293 296 298 299 300 299 293 275 266 269 321 312 295 295 296 296 297 296 293 295 292 292 293 294 292
303 279 282 293 296 315 304 309 276 289 301 300 287 281 286 278 277 279 278 280 282 286 288 290 292 294 296 298 294 289 273 277 315 317 309 301 302 303 301 301 298 299 299 297 298 295 295 295 292
314 280 299 305 309 307 288 301 282 279 305 301 291 286 287 286 285 283 284 285 286 289 289 288 288 290 292 292 290 269 309 313 306 306 307 306 301 301 303 307 304 305 304 303 300 301 298 295 293
270 295 300 310 310 317 316 245 307 299 272 269 305 298 294 292 289 287 286 287 288 289 290 290 289 289 290 293 282 308 304 302 301 301 304 306 304 302 305 309 306 305 305 304 300 297 295 293 291
294 298 311 340 317 315 271 283 292 274 267 274 289 293 293 293 291 290 291 290 289 288 288 288 289 293 291 296 298 301 302 299 300 296 299 303 304 305 307 306 305 304 303 298 296 295 292 291 288
291 309 319 311 298 288 295 297 275 262 263 278 291 294 295 295 295 294 293 292 291 291 292 295 290 290 293 294 295 296 298 300 301 303 305 303 304 306 306 303 301 303 300 295 292 291 290 290 289
312 311 327 300 304 292 313 271 278 294 297 285 293 303 300 300 299 298 297 296 295 295 293 291 291 291 292 295 294 294 302 299 302 306 305 306 305 304 303 304 304 301 297 294 292 294 294 289 285
305 309 301 304 336 311 303 303 291 290 306 273 304 306 302 300 302 302 301 299 296 293 292 291 291 292 293 291 291 293 296 294 299 304 304 305 304 303 305 305 301 298 296 295 296 297 297 294 284
318 316 313 304 296 297 291 287 278 283 284 294 305 309 304 304 306 306 303 300 296 294 294 292 288 287 295 293 288 294 299 298 299 302 302 303 303 304 303 300 297 295 293 288 288 295 305 304 291
307 293 287 300 301 290 300 285 279 284 290 298 301 306 310 312 311 307 305 302 298 296 297 296 295 289 286 281 291 296 297 299 299 299 299 300 300 297 295 296 296 294 287 286 290 297 307 305 294
302 298 300 296 298 293 302 302 293 293 307 305 308 308 310 310 309 308 304 300 297 296 297 292 300 306 304 300 295 295 295 296 297 296 295 294 293 294 296 296 297 291 289 289 289 295 299 300 293